Tracking 30072 objects as of 15-Jan-2025
HD Live streaming from Space Station
objects crossing your sky now

THORAD AGENA D DEB

Track THORAD AGENA D DEB now!
10-day predictions


NORAD ID: 42523
Int'l Code: 1970-025SD
Perigee: 966.2 km
Apogee: 1,006.5 km
Inclination: 100.0 °
Period: 104.7 minutes
Semi major axis: 7357 km
RCS: Unknown
Launch date: April 8, 1970
Source: United States (US)
Launch site: AIR FORCE WESTERN TEST RANGE (AFWTR)

Note: This is SATELLITE DEBRIS
Your satellite tracking list
Your tracking list is empty




NASA's NSSDC Master Catalog

Two Line Element Set (TLE):
1 42523U 70025SD  25014.73638451  .00000784  00000-0  85999-3 0  9991
2 42523  99.9672 105.9013 0027403 155.7781 356.2115 13.75683803559038
Source of the keplerian elements: AFSPC